Location: Adrasan
(36.3319°N, 30.4314°E)
Time: 02:29:10
(UTC+00:00)

COSMO-SKYMED 1 - Pass Details

Date: 16 October 2025
Orbit: 580 x 582 km, 97.9° (Epoch: 13 November)

Event Time Altitude Azimuth Distance (km) Brightness Sun altitude
Rises 02:39:38 0° 138° (SE) 2,800 6.5 -18.2°
Reaches altitude 10° 02:42:04 10° 124° (SE) 1,904 5.8 -17.7°
Maximum altitude 02:45:25 24° 70° (ENE) 1,220 4.9 -17.0°
Drops below altitude 10° 02:48:46 10° 16° (NNE) 1,912 5.3 -16.4°
Sets 02:51:13 0° 3° (N) 2,816 6.0 -15.9°
